フィエチジョシュ彗星

C/2024 E1 ( Wierzchos )

English version
Home page
Updated on August 30, 2025

---------------------------------------------------------------------

・ プロフィール

発見日 2024年3月3日
発見光度 20.4等
発見者 Kacper W. Wierzchos (Mt. Lemmon Survey)

・ 写真集

・ 軌道要素

Epoch 2025 May 5.0 TT = JDT 2460800.5
T 2026 Jan. 20.76491 TT                                 Pike
q   0.5659269            (2000.0)            P               Q
z  -0.0000990      Peri.  243.63579     +0.35485148     -0.17053776
 +/-0.0000022      Node   108.08219     +0.02234274     +0.98448891
e   1.0000560      Incl.   75.23855     -0.93465567     -0.04121239
From 1796 observations 2024 Feb. 15-2025 Aug. 6, mean residual 0".5.

・ 星図

・ 光度変化

        m1 = 7.0 + 5 logΔ + 10.0 log r

---------------------------------------------------------------------

軌道要素はM.P.E.C. 2025-P113に掲載されたものです。
星図はステラナビゲータ Ver.11 (アストロアーツ) で作成したものです。
光度グラフはComet for Windowsで作成したものです。

---------------------------------------------------------------------

Copyright(C) Seiichi Yoshida (comet@aerith.net). All rights reserved.